FREGAT DEB, 46002

Orbit data source: Space-Track

FREGAT DEB, 46002 is space debris originally from a launch on Mon, 18 Jul 2011 UTC launched from the Tyuratam Missile And Space Complex (TTMTR). Debris objects in space refer to the collection of defunct objects orbiting the Earth. Examples of debris include non-operational satellites, rocket bodies, and fragments generated from explosions, collisions, or faulty payload assembly.

Loading next visibility...
FREGAT DEB details
Identifier
46002, 2011-037HD
Orbit
Active
Last TLE update16 hours ago
Origin
Flag of CISVVKO VKS (CIS)
ManufacturerLavochkin
MissionSpacecraft
Bus & MotorUnknown
MassUnknown
Launch date (UTC)
2011-07-18 (13 years ago)
Launch vehicleUnknown
Launch site
Tyuratam Missile And Space Complex (TTMTR)
Object type
Payload
Rocket body
Debris
Shape & HBRUnknown
Radar Cross SectionSmall (<0.1 m²)

Expand to show TLE details & history

TLE from 16 hours ago
0 FREGAT DEB
1 46002U 11037HD  24336.71517535  .00090277  00000-0  13026+0 0  9992
2 46002  51.1885 196.4818 1696623 140.1007 233.7765 11.07221670164130
Epoch: 2024-12-01T17:09Z
Definitive object data (Epoch: 2024-12-01T17:09:51.15Z)
Latitude-0.00005°
Longitude-132.03077°
Altitude3,115.023 km
Speed6.093 km/s
True Right ascension13h 05m 55s
True Declination0° 00' 00"
Sunlit
Object was in daylight at TLE epoch
Visualization TLE readout
Latitude37.70768°
Longitude-95.35707°
Altitude1,876.915 km
Speed7.056 km/s
Apparent Right ascension16h 46m 32s
Apparent Declination5° 08' 23"
Sunlit
Object is in daylight
Visualization observer readout
Local Sidereal Time06:26:37
Azimuth33.035° NE
Elevation-39.4°
Doppler factor1
Orbital elements
Apogee altitude3,568.224 km
Perigee altitude682.737 km
Semi-major axis8,503.618 km
Eccentricity0.1696623
Inclination51.1885°
RAAN196.4818°
Arg. of periapsis140.1007°
True anomaly219.97742°
Mean anomaly233.7765°
Eccentric anomaly226.70167°
Mean motion2.76782 °/min
BSTAR0.13026
Orbital period130.07 mins
Loading maneuver chart data...
Loading historical data...
Loading historical data...
Loading historical data...
Loading historical data...
Loading historical data...
Loading historical data...
Loading historical data...

FREGAT DEB Visibility forecast

Observer location: undefined°, undefined

Span
Click to sort rows by Start time (UTC) header in descending order
Start Az.
Max El. time (UTC)
Max El. Az.
Max El.
End time (UTC)
End Az.
19 mins2024-12-02 14:51:20.899Z168.205° S2024-12-02 15:02:20.899Z126.158° SE21.625°2024-12-02 15:10:20.899Z81.747° E
22 mins2024-12-02 17:05:20.899Z217.723° SW2024-12-02 17:19:20.899Z148.335° SSE43.405°2024-12-02 17:27:20.899Z58.449° ENE
16 mins2024-12-02 19:27:20.899Z265.691° W2024-12-02 19:36:20.899Z326.303° NNW36.735°2024-12-02 19:43:20.899Z50.295° ENE
9 mins2024-12-02 21:49:20.899Z307.743° NW2024-12-02 21:54:20.899Z359.453° N28.052°2024-12-02 21:58:20.899Z60.56° ENE
8 mins2024-12-03 00:07:20.899Z307.492° NW2024-12-03 00:11:20.899Z50.336° ENE44.888°2024-12-03 00:15:20.899Z124.949° SE
|